1504573201.01,26067,15.38,73670.8,-2.75,-4.29,-4.29,0,*55
1504573202.24,26068,15.38,73668.3,-2.75,-4.29,-4.29,0,*5A
1504573203.47,26069,15.38,73670.5,-2.75,-4.25,-4.17,0,*5A
1504573204.7,26070,15.38,73666.5,-2.75,-4.25,-4.25,0,*53
1504573205.93,26071,15.38,73662.5,-2.77,-4.21,-4.21,0,*50
1504573207.17,26072,15.38,73668.8,-2.75,-4.25,-4.25,0,*51
1504573208.4,26073,15.38,73670.0,-2.75,-4.25,-4.25,0,*50
1504573209.62,26074,15.38,73666.0,-2.77,-4.33,-4.29,0,*5E
1504573210.85,26075,15.38,73672.5,-2.75,-4.37,-4.29,0,*59
1504573212.07,26076,15.38,73668.5,-2.77,-4.33,-4.29,0,*5C
1504573213.3,26077,15.38,73668.8,-2.75,-4.45,-4.25,0,*52
1504573214.51,26078,15.38,73672.5,-2.75,-4.41,-4.17,0,*58
1504573215.73,26079,15.38,73668.0,-2.77,-4.41,-4.17,0,*5B
1504573216.95,26080,15.38,73676.0,-2.75,-4.37,-4.17,0,*5E
1504573218.17,26081,15.38,73674.5,-2.77,-4.33,-4.29,0,*54
1504573219.39,26082,15.38,73674.5,-2.77,-4.33,-4.17,0,*5A
1504573220.62,26083,15.38,73670.8,-2.75,-4.17,-4.25,0,*5E
1504573221.85,26084,15.38,73672.3,-2.75,-4.25,-4.17,0,*59
1504573223.1,26085,15.38,73678.0,-2.75,-4.13,-4.01,0,*5A
1504573224.32,26086,15.38,73660.8,-2.77,-4.05,-4.05,0,*58
1504573225.54,26087,15.38,73666.3,-2.75,-4.13,-4.17,0,*5F
1504573226.76,26088,15.38,73672.0,-2.77,-4.05,-4.29,0,*58
1504573227.99,26089,15.38,73654.5,-2.75,-4.13,-4.25,0,*50
1504573229.22,26090,15.38,73654.8,-2.75,-4.13,-4.25,0,*58
1504573230.44,26091,15.38,73658.3,-2.77,-4.17,-4.33,0,*58
1504573231.67,26092,15.38,73662.8,-2.75,-4.13,-4.41,0,*58
1504573232.92,26093,15.38,73660.0,-2.75,-4.17,-4.77,0,*58
1504573234.15,26094,15.38,73664.3,-2.75,-4.29,-5.47,0,*50
1504573235.4,26095,15.38,73662.5,-2.75,-4.65,-6.63,0,*5C
1504573236.68,26096,15.38,73660.5,-2.75,-5.15,-8.07,0,*55
1504573237.93,26097,15.38,73676.0,-2.77,-6.09,-9.53,0,*58
1504573239.19,26098,15.38,73678.0,-2.75,-7.65,-11.19,0,*69
1504573240.48,26099,15.38,73674.3,-2.77,-9.11,-12.71,0,*6A
1504573241.71,26100,15.38,73678.3,-2.75,-10.09,-12.93,0,*54
1504573242.95,26101,15.38,73678.5,-2.77,-11.01,-12.93,0,*5E
1504573244.23,26102,15.38,73672.5,-2.75,-11.37,-12.65,0,*53
1504573245.5,26103,15.38,73668.8,-2.75,-10.97,-12.35,0,*5C
1504573246.77,26104,15.38,73674.5,-2.75,-10.41,-12.21,0,*55
1504573248.03,26105,15.38,73666.0,-2.75,-11.67,-13.11,0,*53
1504573249.29,26106,15.38,73666.3,-2.77,-11.59,-12.97,0,*50
1504573250.58,26107,15.38,73666.8,-2.75,-11.77,-12.35,0,*57
1504573251.84,26108,15.38,73670.5,-2.77,-11.67,-10.31,0,*5D
1504573253.07,26109,15.38,73674.5,-2.77,-10.05,-8.85,0,*6F
1504573254.31,26110,15.38,73672.8,-2.77,-9.19,-7.99,0,*50
1504573255.56,26111,15.38,73678.5,-2.77,-8.29,-7.73,0,*57
1504573256.83,26112,15.38,73668.0,-2.77,-7.91,-9.53,0,*54
1504573258.1,26113,15.38,73674.0,-2.75,-7.65,-9.57,0,*58
1504573259.33,26114,15.38,73674.0,-2.77,-8.29,-9.93,0,*52
1504573260.58,26115,15.38,73670.3,-2.75,-8.37,-9.83,0,*5F
1504573261.83,26116,15.38,73668.0,-2.77,-9.49,-11.23,0,*65
1504573263.08,26117,15.38,73666.0,-2.77,-8.93,-9.37,0,*5E
1504573264.32,26118,15.38,73672.0,-2.75,-8.37,-8.37,0,*5C
1504573265.54,26119,15.38,73672.3,-2.75,-8.59,-8.21,0,*52
1504573266.76,26120,15.38,73670.5,-2.77,-8.55,-8.17,0,*53
1504573268.02,26121,15.38,73668.3,-2.75,-7.83,-7.73,0,*59
1504573269.26,26122,15.38,73670.3,-2.77,-7.35,-8.17,0,*58
1504573270.49,26123,15.38,73674.8,-2.75,-7.53,-8.37,0,*59
1504573271.76,26124,15.38,73674.0,-2.77,-7.77,-7.99,0,*51
1504573273.03,26125,15.38,73668.0,-2.75,-7.31,-7.27,0,*55
1504573274.29,26126,15.38,73666.3,-2.75,-6.51,-7.39,0,*5E
1504573275.54,26127,15.38,73670.5,-2.77,-6.97,-8.97,0,*5C
1504573276.78,26128,15.38,73676.0,-2.75,-7.87,-10.35,0,*60
1504573278.06,26129,15.38,73672.3,-2.75,-9.15,-11.37,0,*67
1504573279.3,26130,15.38,73668.5,-2.75,-10.53,-12.03,0,*51
1504573280.58,26131,15.38,73670.0,-2.75,-9.61,-11.07,0,*6E
1504573281.85,26132,15.38,73672.8,-2.75,-10.15,-10.41,0,*55
1504573283.12,26133,15.38,73668.3,-2.75,-10.79,-9.57,0,*61
1504573284.34,26134,15.38,73666.8,-2.77,-9.89,-8.29,0,*5B
1504573285.59,26135,15.38,73670.8,-2.75,-9.01,-7.31,0,*5E
1504573286.81,26136,15.38,73664.0,-2.77,-8.29,-6.39,0,*5D
1504573288.06,26137,15.38,73670.3,-2.77,-7.49,-5.69,0,*53
1504573289.28,26138,15.38,73670.0,-2.77,-7.11,-5.35,0,*58
1504573290.53,26139,15.38,73676.0,-2.75,-6.39,-4.93,0,*5D
1504573291.79,26140,15.38,73680.8,-2.75,-5.81,-4.65,0,*5A
1504573293.04,26141,15.38,73684.3,-2.75,-5.81,-4.53,0,*5E
1504573294.26,26142,15.38,73684.0,-2.75,-5.43,-4.45,0,*54
1504573295.5,26143,15.38,73686.3,-2.77,-4.93,-4.57,0,*58
1504573296.73,26144,15.38,73686.3,-2.75,-4.37,-4.57,0,*53
1504573297.99,26145,15.38,73686.5,-2.75,-4.25,-4.89,0,*52
1504573299.24,26146,15.38,73690.8,-2.77,-4.41,-5.61,0,*56
1504573300.51,26147,15.38,73690.5,-2.77,-4.73,-5.89,0,*50
1504573301.76,26148,15.38,73688.5,-2.75,-5.03,-6.13,0,*5B
1504573302.98,26149,15.38,73686.0,-2.73,-5.07,-5.97,0,*57
1504573304.2,26150,15.38,73684.5,-2.75,-5.35,-5.43,0,*51
1504573305.47,26151,15.38,73680.5,-2.77,-5.27,-4.93,0,*5D
1504573306.75,26152,15.38,73684.0,-2.75,-4.81,-4.81,0,*52
1504573308.0,26153,15.38,73684.8,-2.75,-4.65,-4.81,0,*59
1504573309.25,26154,15.38,73684.8,-2.75,-4.65,-5.03,0,*55
1504573310.51,26155,15.38,73688.8,-2.75,-4.57,-5.15,0,*52
1504573311.79,26156,15.38,73684.3,-2.75,-4.89,-5.07,0,*51
1504573312.99,26157,15.38,73686.5,-2.73,-4.65,-4.65,0,*51
1504573314.21,26158,15.38,73684.8,-2.73,-4.77,-4.37,0,*5A
1504573315.43,26159,15.38,73684.0,-2.69,-4.77,-4.21,0,*57
1504573316.65,26160,15.38,73686.5,-2.73,-4.77,-4.29,0,*5E
1504573317.86,26161,15.38,73686.0,-2.73,-4.77,-4.41,0,*51
1504573319.05,26162,15.38,73688.8,-2.73,-4.45,-4.29,0,*5D
1504573320.25,26163,15.38,73692.5,-2.73,-4.37,-4.29,0,*59
1504573321.44,26164,15.38,73696.3,-2.73,-4.29,-4.17,0,*5C
1504573322.65,26165,15.38,73692.5,-2.69,-4.33,-4.13,0,*59
1504573323.84,26166,15.38,73690.8,-2.73,-4.41,-4.25,0,*51
1504573325.04,26167,15.38,73686.0,-2.73,-4.45,-4.25,0,*54
1504573326.23,26168,15.38,73682.0,-2.73,-4.41,-4.29,0,*53
1504573327.43,26169,15.38,73680.5,-2.73,-4.41,-4.29,0,*52
1504573328.63,26170,15.38,73678.3,-2.73,-4.41,-4.37,0,*55
1504573329.82,26171,15.38,73688.3,-2.73,-4.53,-4.29,0,*58
1504573331.01,26172,15.38,73688.8,-2.73,-4.37,-4.17,0,*54
1504573332.22,26173,15.38,73698.0,-2.69,-4.25,-4.09,0,*52
1504573333.42,26174,15.38,73700.5,-2.73,-4.25,-4.05,0,*52
1504573334.62,26175,15.38,73694.8,-2.73,-4.25,-4.05,0,*53
1504573335.81,26176,15.38,73684.5,-2.73,-4.29,-4.25,0,*5E
1504573337.01,26177,15.38,73668.8,-2.73,-4.29,-4.17,0,*5E
1504573338.21,26178,15.38,73674.5,-2.73,-4.29,-4.13,0,*55
1504573339.39,26179,15.38,73668.5,-2.73,-4.37,-4.17,0,*5F
1504573340.63,26180,15.38,73668.5,-2.75,-4.25,-4.25,0,*5D
1504573341.85,26181,15.38,73674.0,-2.75,-4.29,-4.13,0,*55
1504573343.06,26182,15.38,73682.3,-2.73,-4.25,-4.13,0,*5C
1504573344.26,26183,15.38,73670.8,-2.69,-4.37,-4.29,0,*5C
1504573345.46,26184,15.38,73682.3,-2.73,-4.29,-4.25,0,*53
1504573346.66,26185,15.38,73682.5,-2.69,-4.13,-4.21,0,*54
1504573347.85,26186,15.38,73690.0,-2.73,-4.45,-4.41,0,*59
1504573349.09,26187,15.38,73694.3,-2.73,-4.69,-4.77,0,*53
1504573350.34,26188,15.38,73692.0,-2.69,-4.73,-4.77,0,*5C
1504573351.58,26189,15.38,73692.0,-2.73,-4.81,-4.81,0,*52
1504573352.84,26190,15.38,73690.5,-2.73,-5.03,-5.07,0,*5E
1504573354.09,26191,15.38,73688.3,-2.73,-5.03,-4.89,0,*58
1504573355.35,26192,15.38,73688.0,-2.69,-5.31,-4.85,0,*5D
1504573356.58,26193,15.38,73684.8,-2.69,-5.31,-4.65,0,*52
1504573357.8,26194,15.38,73688.0,-2.73,-5.43,-4.77,0,*58
1504573359.05,26195,15.38,73686.0,-2.73,-5.23,-4.69,0,*50
1504573360.26,26196,15.38,73680.5,-2.73,-4.93,-4.41,0,*53
1504573361.46,26197,15.38,73680.0,-2.73,-4.37,-4.05,0,*5C
1504573362.68,26198,15.38,73682.0,-2.73,-4.17,-4.01,0,*55
1504573363.88,26199,15.38,73686.5,-2.73,-4.05,-3.91,0,*59
1504573365.13,26200,15.38,73686.3,-2.73,-4.01,-4.01,0,*50
1504573366.34,26201,15.38,73676.5,-2.73,-3.91,-3.91,0,*51
1504573367.54,26202,15.38,73682.0,-2.73,-3.79,-3.79,0,*52
1504573368.75,26203,15.38,73674.0,-2.73,-3.79,-3.79,0,*53
1504573369.95,26204,15.38,73670.0,-2.73,-3.75,-3.87,0,*59
1504573371.16,26205,15.38,73676.8,-2.73,-3.75,-3.79,0,*59
1504573372.38,26206,15.38,73664.0,-2.73,-3.67,-3.79,0,*59
1504573373.6,26207,15.38,73668.3,-2.69,-3.71,-3.83,0,*51
1504573374.83,26208,15.38,73672.3,-2.73,-3.87,-4.01,0,*51
1504573376.06,26209,15.38,73670.3,-2.73,-3.79,-4.01,0,*51
1504573377.29,26210,15.38,73674.5,-2.73,-4.01,-4.13,0,*52
1504573378.49,26211,15.38,73668.0,-2.73,-3.91,-4.17,0,*59
1504573379.69,26212,15.38,73676.8,-2.73,-4.25,-4.25,0,*53
1504573380.88,26213,15.38,73686.8,-2.73,-4.17,-4.17,0,*52
1504573382.09,26214,15.38,73676.8,-2.69,-4.33,-4.13,0,*5C
1504573383.3,26215,15.38,73664.5,-2.69,-4.25,-4.21,0,*5B
1504573384.5,26216,15.38,73664.5,-2.73,-4.29,-4.29,0,*57
1504573385.73,26217,15.38,73660.3,-2.69,-4.01,-4.09,0,*55
1504573386.93,26218,15.38,73664.5,-2.73,-3.91,-4.17,0,*50
1504573388.15,26219,15.38,73668.5,-2.69,-3.95,-4.21,0,*5B
1504573389.35,26220,15.38,73668.8,-2.69,-4.05,-4.45,0,*5D
1504573390.58,26221,15.38,73674.3,-2.69,-4.25,-4.85,0,*52
1504573391.83,26222,15.38,73670.5,-2.73,-4.81,-5.31,0,*5A
1504573393.08,26223,15.38,73668.8,-2.73,-5.31,-5.69,0,*5C
1504573394.34,26224,15.38,73672.8,-2.69,-5.65,-5.89,0,*5F
1504573395.54,26225,15.38,73680.8,-2.69,-6.01,-6.31,0,*5F
1504573396.77,26226,15.38,73676.3,-2.69,-6.97,-6.69,0,*5E
1504573398.0,26227,15.38,73672.5,-2.69,-6.69,-5.89,0,*53
1504573399.2,26228,15.38,73678.8,-2.69,-6.35,-6.09,0,*5E
1504573400.4,26229,15.38,73678.3,-2.69,-7.49,-6.05,0,*59
1504573401.6,26230,15.38,73682.0,-2.69,-7.83,-5.43,0,*56
1504573402.83,26231,15.38,73690.0,-2.69,-7.11,-4.73,0,*5E
1504573404.04,26232,15.38,73690.5,-2.69,-6.81,-4.41,0,*54
1504573405.27,26233,15.38,73690.5,-2.69,-6.19,-4.21,0,*52
1504573406.47,26234,15.38,73688.8,-2.69,-5.43,-3.87,0,*52
1504573407.7,26235,15.38,73670.8,-2.69,-5.15,-3.83,0,*54
1504573408.89,26236,15.38,73676.8,-2.69,-4.49,-3.75,0,*56
1504573410.11,26237,15.38,73678.8,-2.73,-4.05,-3.67,0,*57
1504573411.36,26238,15.38,73680.8,-2.69,-3.71,-3.51,0,*52
1504573412.61,26239,15.38,73672.8,-2.69,-3.59,-3.59,0,*51
1504573413.86,26240,15.38,73674.8,-2.67,-3.63,-3.75,0,*56
1504573415.08,26241,15.38,73666.3,-2.73,-3.67,-3.79,0,*5A
1504573416.33,26242,15.38,73676.0,-2.67,-3.71,-3.75,0,*57
1504573417.54,26243,15.38,73686.8,-2.69,-3.95,-3.87,0,*5F
1504573418.73,26244,15.38,73680.0,-2.69,-4.37,-4.05,0,*5A
1504573419.94,26245,15.38,73676.8,-2.69,-4.21,-3.87,0,*51
1504573421.15,26246,15.38,73686.3,-2.69,-4.21,-3.87,0,*52
1504573422.35,26247,15.38,73682.3,-2.69,-4.09,-3.75,0,*54
1504573423.6,26248,15.38,73682.0,-2.67,-3.95,-3.71,0,*53
1504573424.84,26249,15.38,73688.0,-2.67,-3.83,-3.71,0,*55
1504573426.09,26250,15.38,73684.5,-2.67,-3.75,-3.71,0,*54
1504573427.36,26251,15.38,73686.0,-2.67,-3.63,-3.51,0,*50
1504573428.61,26252,15.38,73686.0,-2.69,-3.51,-3.51,0,*5C
1504573429.86,26253,15.38,73684.0,-2.69,-3.59,-3.51,0,*55
1504573431.12,26254,15.38,73682.3,-2.69,-3.51,-3.59,0,*52
1504573432.39,26255,15.38,73690.3,-2.67,-3.51,-3.59,0,*5D
1504573433.66,26256,15.38,73684.8,-2.67,-3.51,-3.51,0,*56
1504573434.93,26257,15.38,73686.3,-2.67,-3.59,-3.51,0,*5F
1504573436.17,26258,15.38,73684.0,-2.65,-3.67,-3.59,0,*57
1504573437.38,26259,15.38,73684.3,-2.65,-3.83,-3.79,0,*5E
1504573438.6,26260,15.38,73686.3,-2.67,-4.09,-3.83,0,*56
1504573439.83,26261,15.38,73686.8,-2.67,-3.95,-3.75,0,*5C
1504573441.05,26262,15.38,73696.5,-2.67,-3.87,-3.83,0,*55
1504573442.28,26263,15.38,73698.0,-2.67,-3.75,-3.87,0,*5D
1504573443.53,26264,15.38,73696.3,-2.67,-3.71,-4.21,0,*55
1504573444.74,26265,15.38,73698.3,-2.65,-3.83,-4.37,0,*5C
1504573445.94,26266,15.38,73698.5,-2.65,-4.05,-4.61,0,*55
1504573447.17,26267,15.38,73698.5,-2.67,-4.25,-4.65,0,*50
1504573448.4,26268,15.38,73692.3,-2.67,-4.41,-4.61,0,*59
1504573449.59,26269,15.38,73694.5,-2.65,-4.61,-4.37,0,*5B
1504573450.79,26270,15.38,73694.3,-2.65,-4.57,-4.09,0,*5B
1504573452.01,26271,15.38,73694.8,-2.67,-4.33,-3.83,0,*5F
1504573453.24,26272,15.38,73686.5,-2.67,-3.87,-3.75,0,*5D
1504573454.5,26273,15.38,73688.8,-2.67,-3.71,-3.63,0,*52
1504573455.74,26274,15.38,73690.3,-2.65,-3.59,-3.55,0,*58
1504573457.02,26275,15.31,73682.5,-2.67,-3.59,-3.51,0,*5F
1504573458.25,26276,15.38,73686.5,-2.65,-3.43,-3.47,0,*52
1504573459.53,26277,15.38,73682.8,-2.67,-3.51,-3.59,0,*5D
1504573460.8,26278,15.38,73684.8,-2.67,-3.59,-3.59,0,*5A
1504573462.06,26279,15.38,73686.3,-2.69,-3.59,-3.59,0,*55
1504573463.33,26280,15.38,73682.8,-2.63,-3.55,-3.59,0,*55
1504573464.57,26281,15.38,73690.3,-2.65,-3.59,-3.67,0,*53
1504573465.83,26282,15.38,73686.8,-2.67,-3.71,-3.63,0,*5C
1504573467.1,26283,15.38,73682.8,-2.67,-3.63,-3.71,0,*5D
1504573468.37,26284,15.38,73690.0,-2.67,-3.63,-3.63,0,*59
1504573469.63,26285,15.38,73686.0,-2.67,-3.71,-3.71,0,*58
1504573470.88,26286,15.31,73672.3,-2.67,-3.71,-3.83,0,*56
1504573472.11,26287,15.38,73676.0,-2.65,-3.71,-3.71,0,*58
1504573473.32,26288,15.38,73676.3,-2.65,-3.75,-3.83,0,*5E
1504573474.55,26289,15.38,73678.5,-2.67,-3.75,-3.75,0,*54
1504573475.8,26290,15.38,73674.3,-2.65,-3.59,-3.59,0,*5E
1504573477.06,26291,15.38,73672.0,-2.67,-3.63,-3.71,0,*5E
1504573478.34,26292,15.31,73668.5,-2.67,-3.63,-3.59,0,*57
1504573479.6,26293,15.38,73674.3,-2.63,-3.71,-3.67,0,*5C
1504573480.84,26294,15.31,73678.0,-2.65,-3.67,-3.71,0,*5D
1504573482.08,26295,15.38,73686.3,-2.65,-3.71,-3.59,0,*51
1504573483.29,26296,15.38,73684.5,-2.65,-3.91,-3.83,0,*5B
1504573484.51,26297,15.38,73674.8,-2.67,-4.09,-4.09,0,*5B
1504573485.71,26298,15.38,73672.3,-2.65,-4.05,-3.91,0,*5C
1504573486.91,26299,15.38,73678.5,-2.65,-3.91,-3.83,0,*54
1504573488.11,26300,15.38,73676.8,-2.65,-3.95,-3.83,0,*51
1504573489.31,26301,15.31,73674.8,-2.65,-4.33,-3.91,0,*58
1504573490.51,26302,15.38,73690.3,-2.65,-4.33,-3.83,0,*58
1504573491.69,26303,15.31,73684.8,-2.65,-4.45,-3.95,0,*5F
1504573492.89,26304,15.31,73688.5,-2.65,-4.33,-4.05,0,*57
1504573494.08,26305,15.38,73692.0,-2.65,-4.37,-4.29,0,*5C
1504573495.27,26306,15.31,73692.3,-2.65,-4.49,-4.33,0,*5D
1504573496.47,26307,15.38,73692.5,-2.65,-4.45,-4.21,0,*53
1504573497.67,26308,15.31,73690.3,-2.65,-4.29,-4.21,0,*56
1504573498.89,26309,15.31,73684.0,-2.63,-4.29,-4.17,0,*54
1504573500.09,26310,15.38,73692.5,-2.65,-4.33,-4.37,0,*53
1504573501.29,26311,15.38,73694.8,-2.65,-4.29,-4.21,0,*5E
1504573502.51,26312,15.31,73690.0,-2.67,-4.37,-4.37,0,*57
1504573503.74,26313,15.38,73698.8,-2.67,-4.61,-4.61,0,*56
1504573504.96,26314,15.38,73696.8,-2.65,-4.73,-4.61,0,*50
1504573506.2,26315,15.38,73694.0,-2.67,-4.89,-4.99,0,*51
1504573507.42,26316,15.38,73676.3,-2.65,-5.35,-5.11,0,*57
1504573508.65,26317,15.31,73674.3,-2.65,-5.27,-5.35,0,*53
1504573509.92,26318,15.38,73680.8,-2.67,-5.27,-5.65,0,*5B
1504573511.17,26319,15.38,73680.5,-2.63,-5.39,-5.85,0,*5F
1504573512.39,26320,15.31,73682.5,-2.65,-6.13,-6.27,0,*53
1504573513.61,26321,15.31,73686.0,-2.65,-6.43,-7.05,0,*56
1504573514.85,26322,15.38,73690.8,-2.65,-7.35,-7.65,0,*53
1504573516.05,26323,15.31,73688.8,-2.65,-8.25,-8.59,0,*5C
1504573517.27,26324,15.38,73690.8,-2.65,-8.67,-9.49,0,*5D
1504573518.54,26325,15.38,73688.8,-2.67,-9.45,-9.37,0,*56
1504573519.77,26326,15.38,73688.8,-2.67,-9.01,-8.29,0,*5B
1504573520.97,26327,15.31,73692.5,-2.65,-8.29,-7.23,0,*56
1504573522.21,26328,15.38,73696.5,-2.67,-8.45,-6.97,0,*5F
1504573523.46,26329,15.38,73698.5,-2.67,-7.91,-6.35,0,*50
1504573524.75,26330,15.38,73694.5,-2.63,-7.73,-5.61,0,*52
1504573526.02,26331,15.31,73674.0,-2.67,-7.01,-5.19,0,*5D
1504573527.25,26332,15.31,73676.5,-2.63,-6.31,-4.49,0,*5C
1504573528.49,26333,15.31,73676.0,-2.67,-5.77,-4.49,0,*58
1504573529.74,26334,15.38,73680.0,-2.67,-4.77,-4.13,0,*51
1504573530.92,26335,15.38,73680.5,-2.65,-4.45,-3.95,0,*5A
1504573532.12,26336,15.31,73688.0,-2.65,-4.21,-3.83,0,*5C
1504573533.32,26337,15.38,73688.3,-2.65,-4.09,-3.79,0,*52
1504573534.57,26338,15.38,73690.8,-2.67,-4.01,-3.83,0,*52
1504573535.79,26339,15.38,73692.5,-2.65,-3.91,-3.71,0,*52
1504573537.02,26340,15.31,73688.8,-2.63,-3.83,-3.79,0,*51
1504573538.25,26341,15.31,73694.3,-2.63,-3.79,-3.95,0,*57
1504573539.49,26342,15.38,73690.8,-2.63,-3.91,-4.09,0,*50
1504573540.71,26343,15.38,73694.0,-2.63,-3.95,-4.17,0,*5A
1504573541.94,26344,15.31,73690.0,-2.63,-3.95,-4.09,0,*52
1504573543.14,26345,15.31,73684.3,-2.61,-3.91,-4.05,0,*59
1504573544.36,26346,15.31,73684.5,-2.63,-4.05,-3.95,0,*5C
1504573545.59,26347,15.31,73686.0,-2.63,-4.05,-3.95,0,*5D
1504573546.81,26348,15.31,73686.8,-2.63,-4.05,-3.91,0,*56
1504573548.04,26349,15.38,73684.8,-2.65,-4.01,-3.95,0,*51
1504573549.24,26350,15.31,73676.0,-2.65,-3.95,-3.91,0,*57
1504573550.48,26351,15.31,73672.8,-2.65,-3.71,-3.71,0,*52
1504573551.72,26352,15.38,73678.8,-2.65,-3.67,-3.59,0,*5C
1504573552.96,26353,15.31,73676.8,-2.65,-3.59,-3.55,0,*5C
1504573554.2,26354,15.31,73680.5,-2.65,-3.71,-3.55,0,*51
1504573555.47,26355,15.38,73686.8,-2.63,-3.67,-3.59,0,*5D
1504573556.74,26356,15.38,73688.0,-2.63,-3.67,-3.59,0,*5E
1504573558.01,26357,15.31,73686.5,-2.63,-3.67,-3.51,0,*57
1504573559.25,26358,15.38,73686.8,-2.61,-3.55,-3.43,0,*58
1504573560.52,26359,15.31,73686.8,-2.63,-3.59,-3.55,0,*50
1504573561.74,26360,15.38,73684.8,-2.61,-3.79,-3.63,0,*5F
1504573563.01,26361,15.31,73686.0,-2.63,-3.71,-3.67,0,*50
1504573564.27,26362,15.31,73686.0,-2.63,-3.71,-3.55,0,*52
1504573565.52,26363,15.31,73684.5,-2.63,-3.71,-3.79,0,*5D
1504573566.78,26364,15.31,73680.0,-2.63,-3.71,-3.67,0,*55
1504573568.03,26365,15.38,73662.0,-2.63,-3.79,-3.67,0,*5C
1504573569.3,26366,15.31,73668.8,-2.63,-3.47,-3.47,0,*50
1504573570.56,26367,15.31,73668.0,-2.63,-3.55,-3.55,0,*51
1504573571.81,26368,15.31,73676.8,-2.61,-3.51,-3.51,0,*5C
1504573573.07,26369,15.31,73686.8,-2.63,-3.55,-3.55,0,*5F
1504573574.34,26370,15.31,73684.8,-2.63,-3.59,-3.55,0,*5B
1504573575.58,26371,15.31,73682.0,-2.61,-3.43,-3.43,0,*54
1504573576.84,26372,15.31,73686.0,-2.63,-3.55,-3.47,0,*56
1504573578.07,26373,15.31,73686.0,-2.61,-3.43,-3.39,0,*5B
1504573579.28,26374,15.31,73686.0,-2.61,-3.43,-3.39,0,*5C
1504573580.55,26375,15.31,73688.8,-2.63,-3.47,-3.43,0,*56
1504573581.79,26376,15.31,73686.0,-2.61,-3.55,-3.55,0,*53
1504573583.03,26377,15.31,73678.8,-2.61,-3.63,-3.55,0,*57
1504573584.27,26378,15.31,73678.8,-2.61,-3.55,-3.51,0,*59
1504573585.54,26379,15.31,73686.0,-2.63,-3.59,-3.47,0,*51
1504573586.82,26380,15.31,73692.3,-2.63,-3.59,-3.59,0,*58
1504573588.06,26381,15.31,73690.3,-2.61,-3.63,-3.63,0,*5B
1504573589.28,26382,15.31,73690.8,-2.61,-3.67,-3.87,0,*56
1504573590.5,26383,15.31,73684.8,-2.63,-4.05,-3.91,0,*51
1504573591.72,26384,15.31,73684.0,-2.59,-4.17,-3.91,0,*5C
1504573592.92,26385,15.31,73686.5,-2.61,-4.25,-3.87,0,*50
1504573594.12,26386,15.31,73690.8,-2.61,-4.17,-3.75,0,*5F
1504573595.35,26387,15.31,73690.5,-2.63,-4.37,-3.67,0,*5D
1504573596.57,26388,15.31,73688.8,-2.63,-4.45,-3.79,0,*58
1504573597.77,26389,15.38,73690.5,-2.61,-4.25,-3.75,0,*51
1504573598.98,26390,15.31,73692.5,-2.61,-4.17,-3.67,0,*5B
1504573600.19,26391,15.31,73694.8,-2.61,-4.17,-3.63,0,*5E
1504573601.44,26392,15.31,73692.3,-2.59,-4.17,-3.63,0,*56
1504573602.71,26393,15.31,73692.3,-2.59,-4.01,-3.43,0,*52
1504573603.96,26394,15.31,73696.3,-2.59,-3.91,-3.51,0,*58
1504573605.18,26395,15.31,73694.8,-2.61,-4.05,-3.43,0,*5B
1504573606.42,26396,15.31,73700.0,-2.63,-4.09,-3.43,0,*56
1504573607.62,26397,15.38,73704.3,-2.61,-3.75,-3.39,0,*54
1504573608.86,26398,15.31,73700.0,-2.61,-3.55,-3.43,0,*54
1504573610.1,26399,15.31,73692.8,-2.61,-3.55,-3.51,0,*56
1504573611.35,26400,15.31,73692.0,-2.61,-3.51,-3.43,0,*56
1504573612.59,26401,15.31,73688.3,-2.61,-3.51,-3.51,0,*54
1504573613.84,26402,15.31,73688.5,-2.59,-3.43,-3.39,0,*51
1504573615.06,26403,15.31,73696.0,-2.59,-3.39,-3.39,0,*5D
1504573616.26,26404,15.31,73698.0,-2.61,-3.39,-3.35,0,*5D
1504573617.46,26405,15.31,73694.0,-2.61,-3.39,-3.35,0,*5C
1504573618.73,26406,15.31,73696.3,-2.63,-3.43,-3.43,0,*51
1504573619.99,26407,15.31,73696.8,-2.59,-3.43,-3.51,0,*5A
1504573621.26,26408,15.38,73696.8,-2.59,-3.51,-3.51,0,*56
1504573622.53,26409,15.31,73696.3,-2.59,-3.51,-3.51,0,*57
1504573623.8,26410,15.31,73696.5,-2.59,-3.43,-3.51,0,*5C
1504573625.07,26411,15.38,73692.5,-2.59,-3.43,-3.43,0,*5E
1504573626.26,26412,15.31,73694.3,-2.57,-3.39,-3.39,0,*53
1504573627.5,26413,15.31,73686.8,-2.61,-3.43,-3.43,0,*57
1504573628.75,26414,15.31,73684.8,-2.61,-3.51,-3.43,0,*53
1504573629.99,26415,15.31,73694.3,-2.61,-3.51,-3.43,0,*52
1504573631.26,26416,15.31,73690.8,-2.59,-3.43,-3.43,0,*59
1504573632.48,26417,15.31,73692.8,-2.59,-3.35,-3.39,0,*54
1504573633.7,26418,15.31,73696.5,-2.59,-3.39,-3.39,0,*57
1504573634.95,26419,15.31,73694.5,-2.59,-3.39,-3.43,0,*5B
1504573636.19,26420,15.31,73694.3,-2.59,-3.39,-3.43,0,*51
1504573637.44,26421,15.31,73688.8,-2.59,-3.39,-3.51,0,*53
1504573638.71,26422,15.31,73694.5,-2.59,-3.43,-3.43,0,*5E
1504573639.97,26423,15.31,73694.0,-2.59,-3.43,-3.43,0,*5F
1504573641.24,26424,15.31,73692.3,-2.59,-3.43,-3.43,0,*58
1504573642.48,26425,15.31,73694.3,-2.61,-3.43,-3.43,0,*52
1504573643.68,26426,15.31,73698.5,-2.57,-3.39,-3.39,0,*54
1504573644.95,26427,15.31,73698.8,-2.59,-3.43,-3.51,0,*58
1504573646.19,26428,15.31,73700.0,-2.61,-3.43,-3.51,0,*5C
1504573647.45,26429,15.31,73700.0,-2.59,-3.43,-3.51,0,*56
1504573648.72,26430,15.31,73698.0,-2.59,-3.51,-3.55,0,*59
1504573649.99,26431,15.31,73698.5,-2.59,-3.51,-3.55,0,*58
1504573651.26,26432,15.31,73688.3,-2.59,-3.51,-3.51,0,*5F
1504573652.52,26433,15.38,73698.0,-2.59,-3.55,-3.63,0,*5B
1504573653.79,26434,15.31,73698.0,-2.59,-3.51,-3.43,0,*5A
1504573655.06,26435,15.31,73684.5,-2.59,-3.43,-3.43,0,*58
1504573656.28,26436,15.31,73682.8,-2.59,-3.35,-3.35,0,*5B
1504573657.53,26437,15.31,73688.5,-2.59,-3.39,-3.43,0,*57
1504573658.75,26438,15.31,73684.3,-2.59,-3.39,-3.39,0,*55
1504573659.98,26439,15.31,73692.0,-2.59,-3.27,-3.39,0,*5B
1504573661.2,26440,15.31,73682.3,-2.59,-3.39,-3.39,0,*5A
1504573662.42,26441,15.31,73686.8,-2.59,-3.39,-3.35,0,*57
1504573663.65,26442,15.31,73698.0,-2.59,-3.39,-3.35,0,*54
1504573664.84,26443,15.31,73686.8,-2.57,-3.35,-3.39,0,*5B
1504573666.09,26444,15.38,73694.8,-2.59,-3.35,-3.43,0,*5F
1504573667.28,26445,15.31,73694.8,-2.57,-3.35,-3.39,0,*5D
1504573668.53,26446,15.31,73696.3,-2.59,-3.39,-3.43,0,*51
1504573669.72,26447,15.31,73696.3,-2.57,-3.35,-3.35,0,*53
1504573670.99,26448,15.31,73692.8,-2.59,-3.51,-3.47,0,*55
1504573672.26,26449,15.31,73692.0,-2.59,-3.55,-3.55,0,*53
1504573673.52,26450,15.38,73694.8,-2.59,-3.43,-3.55,0,*5C
1504573674.79,26451,15.31,73688.8,-2.59,-3.51,-3.51,0,*5A
1504573676.05,26452,15.31,73688.5,-2.59,-3.43,-3.51,0,*5A
1504573677.32,26453,15.31,73684.5,-2.59,-3.43,-3.43,0,*58
1504573678.59,26454,15.31,73684.5,-2.59,-3.43,-3.43,0,*5F
1504573679.81,26455,15.31,73688.0,-2.59,-3.39,-3.39,0,*5E
1504573681.01,26456,15.31,73690.8,-2.57,-3.35,-3.39,0,*5F
1504573682.2,26457,15.31,73688.0,-2.57,-3.39,-3.39,0,*52
1504573683.4,26458,15.31,73694.5,-2.57,-3.31,-3.35,0,*59
1504573684.64,26459,15.31,73698.0,-2.59,-3.39,-3.43,0,*5F
1504573685.88,26460,15.31,73700.5,-2.57,-3.47,-3.47,0,*56
1504573687.15,26461,15.31,73696.0,-2.59,-3.55,-3.51,0,*5D
1504573688.41,26462,15.31,73694.8,-2.59,-3.43,-3.43,0,*5A
1504573689.65,26463,15.31,73694.0,-2.57,-3.51,-3.51,0,*55
1504573690.9,26464,15.31,73694.5,-2.57,-3.51,-3.59,0,*5A
1504573692.12,26465,15.31,73692.8,-2.57,-3.47,-3.39,0,*5A
1504573693.35,26466,15.31,73692.3,-2.57,-3.47,-3.47,0,*50
1504573694.62,26467,15.31,73688.0,-2.59,-3.51,-3.55,0,*5B
1504573695.83,26468,15.31,73688.8,-2.57,-3.39,-3.47,0,*57
1504573697.1,26469,15.31,73688.3,-2.59,-3.43,-3.43,0,*51
1504573698.34,26470,15.31,73686.8,-2.57,-3.47,-3.51,0,*50
1504573699.59,26471,15.31,73676.8,-2.59,-3.43,-3.39,0,*55
1504573700.8,26472,15.31,73684.0,-2.57,-3.39,-3.47,0,*5C
1504573701.99,26473,15.31,73680.8,-2.57,-3.39,-3.39,0,*54
1504573703.19,26474,15.31,73682.8,-2.57,-3.39,-3.39,0,*53
1504573704.38,26475,15.31,73680.3,-2.57,-3.39,-3.39,0,*52
1504573705.58,26476,15.31,73678.3,-2.57,-3.35,-3.35,0,*51
1504573706.8,26477,15.31,73678.5,-2.59,-3.35,-3.39,0,*52
1504573708.03,26478,15.31,73684.8,-2.59,-3.27,-3.39,0,*5E
1504573709.22,26479,15.31,73690.8,-2.57,-3.35,-3.31,0,*5A
1504573710.41,26480,15.31,73674.8,-2.57,-3.39,-3.39,0,*58